Regional Weather Roundup
Issued by NWS

Home | Current Version | Previous Version | Graphics & Text | Print | Product List | Glossary On
Versions: 1 2 3 4 5 6 7 8 9 10 11 12 13 14 15 16 17 18 19 20 21 22 23 24 25 26 27 28 29 30 31 32 33 34 35 36 37 38 39 40 41 42 43 44 45 46 47 48 49 50
000
ASUS43 KBIS 201520
RWRND

NORTH DAKOTA REGIONAL WEATHER ROUNDUP
NATIONAL WEATHER SERVICE BISMARCK ND
1000 AM CDT SUN APR 20 2014

NOTE: "FAIR" INDICATES FEW OR NO CLOUDS BELOW 12,000 FEET WITH NO
SIGNIFICANT WEATHER AND/OR OBSTRUCTIONS TO VISIBILITY.


NDZ001>003-009>011-017-201600-
NORTHWEST NORTH DAKOTA

CITY           SKY/WX    TMP DP  RH WIND       PRES   REMARKS
WILLISTON      PTSUNNY   51  32  48 S8        29.84F
MINOT          PTSUNNY   50  37  61 SE5       29.89F
MINOT AFB      PTSUNNY   44  39  83 SE8       29.88F
$$

NDZ018>021-031>035-040>046-201600-
SOUTHWEST NORTH DAKOTA

CITY           SKY/WX    TMP DP  RH WIND       PRES   REMARKS
BISMARCK       SUNNY     54 N/A N/A SE10      29.95F
DICKINSON      PTSUNNY   55  29  36 S13       29.87S
GARRISON         N/A     49  37  63 S9        29.91F
HETTINGER ARPT MOSUNNY   55  28  35 S8        29.92F
$$

NDZ004>008-012>016-024-026-027-054-201600-
NORTHEAST NORTH DAKOTA

CITY           SKY/WX    TMP DP  RH WIND       PRES   REMARKS
GRAND FORKS    MOSUNNY   47  35  63 S5        30.02F
GRND FRKS AFB  SUNNY     48  37  64 S7        30.02F
DEVILS LAKE    MOSUNNY   52  37  58 S14       29.97F
$$

NDZ022-023-025-028>030-036>039-047>053-201600-
SOUTHEAST NORTH DAKOTA

CITY           SKY/WX    TMP DP  RH WIND       PRES   REMARKS
FARGO          SUNNY     54  35  48 S7        30.01F
JAMESTOWN      SUNNY     51  38  60 S13       29.97F
$$




USA.gov is the U.S. government's official web portal to all federal, state and local government web resources and services.